Location: Sternwarte ZA, Rosenfeld-Brittheim
(48.2889°N, 8.6789°E)
Time: 04:33:24
(UTC+01:00)

ISS - Pass Details

Date: 16 January 2018
Orbit: 402 x 407 km, 51.6° (Epoch: 24 January)

Event Time Altitude Azimuth Distance (km) Brightness Sun altitude
Exits shadow 06:09:15 13° 193° (SSW) 1,286 -1.3 -19.7°
Drops below altitude 10° 06:09:59 10° 181° (S) 1,460 -0.9 -19.5°
Sets 06:12:35 0° 160° (SSE) 2,316 0.4 -19.1°
